Regional Weather Roundup
Issued by NWS

Home | Current Version | Previous Version | Graphics & Text | Print | Product List | Glossary On
Versions: 1 2 3 4 5 6 7 8 9 10 11 12 13 14 15 16 17 18 19 20 21 22 23 24 25 26 27 28 29 30 31 32 33 34 35 36 37 38 39 40 41 42 43 44 45 46 47 48 49 50
000
ASUS43 KOAX 021110
RWRNE

WEATHER ROUNDUP FOR NEBRASKA
NATIONAL WEATHER SERVICE OMAHA NE
500 AM CST FRI DEC 02 2016

NOTES: SATELLITE DATA IS BEING USED TO AUGMENT CLOUD COVER ABOVE
       12000 FEET.
       "FAIR" INDICATES FEW OR NO CLOUDS BELOW 12,000 FEET WITH NO
       SIGNIFICANT WEATHER AND/OR OBSTRUCTIONS TO VISIBILITY.

  * THESE STATIONS DO NOT REPORT WEATHER SUCH AS RAIN...SNOW OR FOG.

NEZ001>004-019>022-054>056-021200-
NEBRASKA PANHANDLE

CITY           SKY/WX    TMP DP  RH WIND       PRES   REMARKS
SCOTTSBLUFF    CLOUDY    18  13  80 N3        30.13R
ALLIANCE       CLEAR     10   7  87 SW8       30.11R WCI  -2
CHADRON        PTCLDY    26  20  77 SW7       30.13R WCI  18
KIMBALL        CLEAR     21  19  91 W7        30.10S WCI  12
SIDNEY         CLEAR     14  11  87 NW10      30.11R WCI   1
$$

NEZ057>060-069>072-079>082-021200-
SOUTHWEST NEBRASKA

CITY           SKY/WX    TMP DP  RH WIND       PRES   REMARKS
NORTH PLATTE   CLEAR     14  10  84 NW7       30.14R WCI   4
IMPERIAL       CLEAR     16  10  77 W5        30.13R WCI   9
LEXINGTON      CLEAR     18  15  87 NW5       30.15R WCI  11
MCCOOK         CLEAR     16  11  80 W7        30.14R WCI   6
OGALLALA       CLEAR     15  11  87 W5        30.14R WCI   7
$$

NEZ005>010-023>029-035>040-094-021200-
NORTH CENTRAL NEBRASKA

CITY           SKY/WX    TMP DP  RH WIND       PRES   REMARKS
VALENTINE      CLOUDY    22  19  89 W5        30.15R WCI  16
AINSWORTH      CLOUDY    20  20  99 W3        30.15R
BROKEN BOW     CLOUDY    27  24  89 CALM      30.13S
O`NEILL        CLOUDY    25  23  95 NW6       30.16R WCI  18
ORD            CLOUDY    24  20  84 CALM      30.16R
THEDFORD       CLOUDY    27  24  89 CALM      30.14R
$$

NEZ041-046>049-061>064-073>077-083>087-021200-
SOUTH CENTRAL NEBRASKA

CITY           SKY/WX    TMP DP  RH WIND       PRES   REMARKS
GRAND ISLAND   CLEAR     19  17  92 N3        30.16R
AURORA         CLEAR     20  19  97 N3        30.17R
HASTINGS       CLEAR     19  16  88 NE3       30.16R
HEBRON         CLEAR     17  15  92 CALM      30.17R
HOLDREGE       CLEAR     17  14  88 NW5       30.13R WCI  10
KEARNEY *      CLEAR     19  16  86 NW8       30.16R WCI   9
YORK           CLEAR     19  19 100 N6        30.17R WCI  11
$$

NEZ011>018-030>034-042>045-021200-
NORTHEAST NEBRASKA

CITY           SKY/WX    TMP DP  RH WIND       PRES   REMARKS
NORFOLK        CLEAR     23  21  92 W6        30.17R WCI  16
ALBION         PTCLDY    21  19  92 CALM      30.17R
BLAIR          CLOUDY    31  28  88 CALM      30.16S
FREMONT        PTCLDY    27  27  99 W5        30.18R WCI  22
TEKAMAH        CLOUDY    32  28  85 W8        30.18R WCI  25
WAYNE          CLOUDY    32  29  90 NW6       30.17R WCI  26
$$

NEZ050>053-065>068-078-088>093-021200-
SOUTHEAST NEBRASKA

CITY           SKY/WX    TMP DP  RH WIND       PRES   REMARKS
LINCOLN        CLEAR     22  19  89 N3        30.20R
OMAHA EPPLEY   CLOUDY    32  26  78 NW3       30.19R
BEATRICE       CLEAR     18  16  90 CALM      30.18R
FALLS CITY     CLEAR     21  19  92 W3        30.18R
NEBRASKA CITY  CLEAR     28  23  81 NW5       30.18R WCI  23
PLATTSMOUTH    PTCLDY    27  23  85 NW5       30.18R WCI  22
$$

NEZ044-045-051>053-067-021200-
OMAHA AREA

CITY           SKY/WX    TMP DP  RH WIND       PRES   REMARKS
OMAHA EPPLEY   CLOUDY    32  26  78 NW3       30.19R
BLAIR          CLOUDY    31  28  88 CALM      30.16S
FREMONT        PTCLDY    27  27  99 W5        30.18R WCI  22
MILLARD        CLOUDY    32  28  86 CALM      30.18R
OFFUTT AFB     CLOUDY    29  29  99 W3        30.18R
PLATTSMOUTH    PTCLDY    27  23  85 NW5       30.18R WCI  22
WAHOO          FAIR      27  24  89 W5        30.18R WCI  22
$$




USA.gov is the U.S. government's official web portal to all federal, state and local government web resources and services.